Theta_e
327 331 334 340 341 340 337 335 331 328 326 322 320 317 315 314 313 312 311 310 309 308 307 307 306 306 306 306 306 305 306 305 304 304 304 304 303 302 301 299 298 297 296
327 328 335 341 340 339 336 333 330 327 324 321 318 315 315 313 312 311 310 309 308 307 306 306 305 305 305 305 306 304 304 304 305 306 305 305 305 302 301 299 297 297 296
327 328 334 339 339 339 337 334 331 327 324 321 318 316 314 313 311 310 309 308 307 306 306 305 305 305 306 305 305 304 304 302 303 305 306 306 306 303 301 300 297 297 296
327 327 329 337 340 338 337 333 331 327 324 322 319 317 314 312 311 310 309 308 306 305 305 304 304 304 304 304 304 304 304 303 301 301 301 302 303 303 301 300 298 297 296
321 322 324 335 337 337 337 333 330 327 324 323 321 317 314 312 310 310 309 307 306 305 304 304 303 303 304 304 303 303 303 303 301 300 299 300 299 299 300 300 299 297 296
320 320 321 324 336 335 336 333 329 327 324 323 321 318 315 313 311 309 309 307 306 304 304 303 303 303 302 302 300 300 300 300 300 300 300 300 300 300 299 298 299 299 296
316 317 319 321 323 333 334 331 327 326 323 322 321 318 315 313 311 310 309 307 305 304 303 302 302 302 301 300 298 298 298 298 298 298 297 296 296 296 296 296 297 296 297
315 314 315 316 319 320 329 331 328 325 322 319 318 316 314 313 313 310 308 306 305 303 302 302 302 301 300 298 297 297 296 297 297 296 295 294 294 294 294 294 295 295 297
314 314 315 315 315 317 318 325 328 325 322 319 316 315 314 313 312 310 308 307 305 303 302 301 301 299 298 296 296 295 295 295 295 294 294 293 293 292 292 292 292 292 294
311 311 314 315 313 314 315 317 320 322 323 318 316 315 314 312 311 311 308 307 304 303 302 301 300 298 296 295 295 293 293 293 293 293 292 292 292 291 290 290 291 291 291
310 310 310 314 313 313 313 313 315 317 318 319 317 315 313 312 311 310 308 306 304 303 301 300 299 297 295 294 293 292 292 291 291 291 291 291 290 289 289 289 290 290 290
308 309 309 310 314 313 312 312 312 312 314 316 318 315 313 312 311 310 308 306 304 303 300 299 296 295 294 292 292 290 290 290 289 290 289 289 288 288 289 289 289 289 289
307 308 308 308 310 314 312 311 311 312 312 312 313 314 313 312 310 308 306 304 302 300 298 297 295 293 292 292 290 289 289 289 288 288 288 287 286 288 289 288 288 288 288
307 307 307 309 309 309 313 312 311 311 310 310 311 313 312 311 309 306 304 303 300 298 297 295 294 292 291 290 288 288 287 287 287 287 288 287 286 287 287 287 287 287 286
306 306 306 307 309 310 310 314 313 312 310 310 310 311 312 310 308 306 304 301 299 296 295 294 292 291 290 288 287 287 287 286 286 286 286 285 285 285 286 285 286 284 284
304 305 307 307 308 311 310 311 311 313 312 310 310 310 310 310 308 305 302 299 296 294 294 293 291 290 288 288 287 286 286 285 285 284 283 283 283 283 282 279 279 279 279
308 309 309 309 309 310 309 310 310 311 312 311 310 310 310 309 307 303 300 296 295 293 292 291 290 289 288 287 286 286 285 284 284 283 283 282 281 281 280 280 280 280 280
308 308 308 308 309 308 308 309 310 310 310 312 310 310 309 308 303 300 298 295 293 292 291 290 289 288 287 286 286 285 285 284 283 283 283 282 281 280 280 279 280 279 280
304 306 307 307 308 308 307 307 309 309 309 311 311 309 308 305 300 297 296 294 292 291 291 289 288 287 286 285 285 284 283 283 282 282 282 282 281 280 279 278 277 278 279
302 304 305 307 307 306 307 307 308 309 308 308 311 309 307 302 298 296 294 293 292 290 288 288 287 286 285 285 284 283 283 282 282 281 281 281 280 279 278 276 276 277 277
303 304 304 305 306 305 306 307 306 301 300 303 305 306 303 299 297 295 293 291 289 288 288 287 286 285 285 284 283 283 282 282 282 282 281 280 279 278 276 275 273 275 276
302 304 304 303 305 305 306 305 296 296 295 298 298 296 296 294 293 292 289 289 288 288 287 285 285 284 284 283 283 283 282 282 282 282 282 280 278 277 276 274 273 274 273
302 304 302 304 304 305 302 301 294 293 293 294 292 291 291 290 290 289 288 288 288 287 286 286 285 284 284 283 283 282 281 281 281 281 281 279 277 275 274 275 275 274 274
303 302 302 303 305 299 296 295 293 292 292 290 289 289 288 288 288 288 288 288 287 287 286 285 284 283 282 282 281 280 279 278 279 279 278 277 276 276 275 276 275 275 276
302 301 303 304 298 296 293 291 291 290 289 289 289 288 288 288 288 288 287 287 286 286 285 285 283 282 281 281 280 279 278 277 277 278 278 277 277 277 277 277 277 277 277
301 302 303 303 296 293 291 291 290 290 289 289 288 288 288 288 287 287 286 286 286 285 285 284 284 283 282 281 280 280 279 279 278 279 279 278 278 279 279 278 277 277 277
Wind_Speed
16 22 28 31 30 28 40 40 39 36 34 28 28 27 28 27 27 25 25 28 28 28 23 22 21 20 19 18 17 17 16 13 14 16 11 8 8 8 7 7 7 6 3
16 13 25 30 33 28 39 39 40 41 36 31 28 26 26 26 25 26 27 28 27 28 25 24 25 21 20 20 18 18 16 14 16 11 17 3 7 10 10 10 6 6 5
16 15 16 27 33 30 38 38 39 38 38 32 28 26 25 24 25 26 28 27 27 27 25 23 23 22 22 22 21 19 18 13 14 13 5 3 3 13 14 12 9 6 5
9 10 6 22 32 33 35 36 36 36 35 34 31 29 27 23 24 25 26 27 27 29 23 26 23 23 20 19 21 19 16 14 12 9 7 3 3 2 3 14 12 9 7
12 12 13 9 30 32 34 36 35 34 34 35 30 30 26 26 27 27 26 26 26 27 23 25 23 24 20 21 19 19 17 14 14 11 9 5 3 1 1 4 8 11 11
13 12 13 22 27 25 23 33 34 32 35 37 33 31 30 28 25 26 27 28 27 26 25 25 25 24 21 23 20 17 15 12 11 8 8 4 1 3 2 1 7 9 15
14 15 17 13 16 14 24 25 27 28 30 34 33 26 31 29 27 29 28 27 26 28 29 29 26 25 22 22 21 18 15 14 12 10 7 5 5 6 6 4 2 3 11
10 13 15 14 13 16 9 21 24 24 25 30 33 30 29 30 25 29 27 27 27 25 26 25 24 23 22 21 20 19 17 15 15 12 10 9 8 7 5 3 5 2 6
11 10 10 13 16 17 9 2 21 23 27 28 30 30 28 31 29 27 28 28 27 26 29 27 23 21 21 21 19 19 17 16 14 13 13 10 9 7 5 5 7 3 1
16 13 6 7 12 14 15 7 7 8 19 33 34 32 32 32 28 24 31 29 28 26 30 26 25 24 21 20 18 19 17 16 14 13 13 10 10 6 4 4 6 1 2
16 16 13 4 4 4 6 8 7 8 12 18 28 29 32 31 33 27 33 32 31 33 35 33 32 31 26 23 20 20 20 19 16 14 14 12 10 6 4 3 3 2 4
14 14 17 17 6 6 3 4 8 10 13 12 21 30 31 32 32 32 35 37 36 36 37 33 32 33 31 29 25 23 22 21 18 15 14 11 8 4 5 4 4 3 4
17 10 4 11 17 8 12 10 9 10 14 17 16 23 27 26 27 29 33 37 37 38 36 34 30 28 29 27 27 25 25 22 19 16 13 9 9 6 7 8 3 4 5
13 13 12 6 8 13 11 17 17 18 17 16 17 17 26 28 28 27 30 34 34 34 33 31 30 29 28 28 29 28 26 23 18 16 15 12 8 7 5 5 1 3 6
11 8 10 10 6 13 13 14 18 18 21 18 18 20 22 25 29 30 32 33 33 34 33 30 28 27 27 26 28 26 21 22 19 17 14 11 12 12 8 9 6 2 1
10 12 14 9 8 5 12 11 10 16 19 22 21 19 22 25 27 33 32 34 32 32 32 31 31 29 26 28 28 27 25 22 21 18 13 12 11 11 10 8 6 4 4
10 11 15 12 6 8 9 10 14 17 15 20 21 20 23 25 25 31 33 32 32 32 32 31 31 28 24 30 29 27 25 23 19 16 15 10 10 9 5 2 2 2 4
10 10 11 16 16 18 13 15 13 14 21 20 21 22 22 22 27 31 32 32 32 32 32 32 31 29 33 31 29 27 24 21 18 16 14 14 11 9 10 8 5 5 7
15 12 14 19 19 22 18 18 10 14 19 20 22 20 22 29 31 29 28 29 29 28 28 33 33 34 34 31 30 23 21 18 17 17 16 13 12 10 7 5 5 6 9
18 15 18 11 13 28 19 15 12 14 13 15 10 20 24 37 33 33 31 28 28 28 33 32 31 32 33 30 28 22 20 17 15 14 13 12 11 9 6 5 4 7 8
16 27 25 13 9 22 13 13 11 10 9 6 5 17 32 37 37 38 36 35 33 33 30 28 30 33 32 29 27 21 18 15 16 18 18 17 14 11 6 5 6 7 10
18 22 23 16 11 9 9 10 11 9 5 4 10 17 28 35 36 37 33 33 32 29 28 28 26 28 29 26 23 20 13 13 16 13 13 16 14 9 5 7 6 9 12
17 21 21 14 10 10 5 7 5 2 4 9 13 16 19 25 31 32 29 28 28 27 26 25 23 22 24 24 21 18 13 12 12 11 11 14 11 5 5 7 8 9 8
4 27 16 12 10 13 10 7 1 3 8 15 18 20 22 23 23 26 28 28 27 25 23 22 22 22 23 23 19 16 14 12 10 9 9 8 5 6 8 11 13 12 10
16 14 10 8 12 10 8 5 4 9 15 17 19 21 22 23 23 22 23 23 22 27 26 23 24 24 20 22 21 18 15 14 13 10 9 8 7 10 14 16 15 11 10
14 12 9 6 10 8 7 7 10 14 18 18 18 21 23 22 23 24 23 19 23 23 23 24 24 20 18 21 19 17 14 14 14 13 11 11 14 14 7 6 8 9 11
Wind_Direction
262 197 188 179 182 190 178 179 177 179 180 184 185 187 178 185 181 179 182 186 186 179 176 182 185 170 180 177 180 173 176 158 164 135 142 159 174 164 170 158 134 115 102
241 247 178 168 178 188 175 179 180 175 181 185 190 189 183 186 181 178 186 189 187 182 177 186 183 175 179 185 176 176 168 173 174 179 168 163 183 190 186 173 168 160 111
255 234 183 172 173 188 176 180 182 179 179 183 186 189 185 184 183 183 178 184 188 186 182 184 180 177 186 181 180 180 182 168 198 207 221 192 180 153 185 179 175 141 158
312 299 235 178 174 184 176 179 183 180 182 182 186 191 190 184 185 178 174 182 187 189 184 184 183 181 180 181 186 187 189 194 179 197 216 202 123 184 151 186 177 177 169
25 4 4 216 184 179 175 177 181 180 184 188 191 193 195 191 184 179 177 182 182 190 187 183 183 178 179 181 180 186 192 176 186 190 172 181 159 158 84 154 157 186 174
21 22 14 9 176 174 161 171 173 183 185 188 197 197 194 185 177 177 179 178 180 184 187 185 185 180 179 179 181 182 176 183 163 181 174 175 168 174 159 148 152 163 170
18 19 23 26 14 153 147 166 177 185 183 186 198 203 193 185 189 186 181 177 180 183 186 182 183 176 181 181 174 168 168 161 157 152 157 122 101 83 77 62 40 101 149
33 27 17 10 27 21 179 166 178 187 187 190 196 202 197 193 205 189 185 184 184 186 180 180 181 174 175 171 167 167 160 160 157 149 140 135 120 105 101 63 74 8 248
19 38 35 11 4 18 4 258 179 184 190 195 193 200 199 196 204 200 195 189 185 182 183 175 173 173 170 169 165 159 156 157 151 148 139 133 118 107 108 97 96 28 322
356 356 37 57 13 359 356 344 294 224 199 190 192 196 202 202 200 210 197 188 184 180 177 176 168 166 169 166 166 157 155 146 146 144 141 132 120 139 118 123 114 138 278
337 341 346 50 78 7 335 324 308 277 248 195 194 196 196 199 205 211 196 190 185 185 173 175 177 173 173 168 166 165 156 153 148 152 148 125 146 134 174 146 145 220 262
312 328 333 328 178 189 225 267 270 268 266 252 217 196 193 198 199 205 193 189 185 186 176 174 170 173 171 172 169 160 162 156 152 152 147 147 142 163 176 174 225 231 272
297 287 248 317 327 202 208 213 230 251 260 260 250 196 194 195 197 196 186 187 180 171 170 171 169 167 166 169 169 166 160 152 154 152 143 159 163 169 209 202 194 231 246
254 280 293 238 231 281 256 201 211 213 227 244 250 209 195 197 194 189 181 180 174 167 165 168 167 166 168 167 168 162 160 150 156 149 161 166 167 210 190 157 270 247 266
254 278 256 272 242 260 247 216 216 205 205 212 233 233 200 198 193 189 180 174 170 165 166 164 165 167 166 162 164 164 155 152 154 160 158 164 192 203 189 179 189 170 36
293 314 285 279 267 319 344 330 331 214 207 200 215 226 207 200 192 184 174 173 163 163 164 166 164 166 165 173 170 160 153 152 162 164 157 181 200 214 221 227 222 246 252
346 330 324 329 297 300 291 313 318 306 239 207 201 214 203 192 190 172 166 162 165 163 163 163 163 166 167 165 164 162 157 161 160 159 164 172 173 174 171 194 262 274 262
318 305 309 308 321 330 332 318 303 324 316 213 200 201 196 182 163 164 163 164 166 165 164 164 165 164 165 170 164 165 163 158 160 162 171 180 187 193 186 186 204 238 255
315 311 311 325 323 314 306 300 327 322 312 306 193 198 188 160 160 164 163 163 162 165 166 163 159 160 163 170 167 159 156 162 169 171 176 172 184 179 192 221 242 261 263
293 291 291 277 314 284 299 308 324 326 4 344 205 192 179 166 161 161 162 161 161 158 155 156 165 166 160 171 170 159 158 159 163 175 175 178 185 190 219 238 235 271 280
315 314 292 265 289 305 314 336 9 15 350 354 154 164 168 167 165 161 161 158 154 153 155 155 153 156 167 172 168 165 162 168 179 174 182 192 206 214 224 255 252 262 273
299 290 295 291 262 297 358 331 48 356 357 102 138 147 155 152 154 153 150 151 150 147 143 139 143 161 168 171 170 166 170 180 180 175 183 191 186 199 235 277 266 269 289
290 310 287 315 328 294 47 36 48 14 123 129 132 137 137 136 142 139 139 138 141 142 141 140 143 145 162 170 174 174 184 175 167 189 178 173 175 190 283 263 255 266 266
302 283 306 318 1 75 79 80 55 172 143 129 122 122 119 120 127 133 139 141 144 143 145 144 145 148 155 166 175 174 188 185 176 165 155 169 189 268 256 244 251 248 254
286 302 322 345 84 84 76 72 137 157 126 122 120 119 120 121 125 126 135 142 147 151 152 156 153 151 159 179 185 181 189 189 191 179 180 199 237 237 237 239 247 242 269
292 306 319 93 107 107 111 131 156 152 134 125 125 125 124 123 122 115 109 134 150 155 159 163 167 172 175 172 173 174 186 187 182 180 187 222 238 231 239 273 287 290 286